Location: Domachevo
(51.7500°N, 23.6000°E)
Time: 23:26:01
(UTC+02:00)

Genesis I - Visible Passes

Search period start: 21 February 2018 00:00
Search period end: 03 March 2018 00:00
Orbit: 488 x 540 km, 64.5° (Epoch: 20 February)

Date Brightness Start Highest point End Pass type
(mag) Time Alt. Az. Time Alt. Az. Time Alt. Az.
21 Feb 5.9 04:08:55 16° ESE 04:08:55 16° ESE 04:11:03 10° ENE visible
21 Feb 3.1 05:43:54 31° SW 05:45:44 79° NW 05:49:46 10° NE visible
22 Feb 6.1 03:53:32 14° E 03:53:32 14° E 03:54:51 10° ENE visible
22 Feb 3.1 05:28:30 49° WSW 05:29:31 78° NW 05:33:32 10° NE visible
23 Feb 6.4 03:38:03 12° E 03:38:03 12° E 03:38:40 10° ENE visible
23 Feb 3.0 05:13:01 72° W 05:13:17 77° NW 05:17:19 10° NE visible
23 Feb 4.8 06:48:28 10° WNW 06:51:34 21° NNW 06:54:42 10° NNE visible
24 Feb 3.3 04:57:26 68° N 04:57:26 68° N 05:01:06 10° NE visible
24 Feb 4.9 06:32:24 11° WNW 06:35:21 21° NNW 06:38:28 10° NNE visible
25 Feb 4.0 04:41:48 49° NNE 04:41:48 49° NNE 04:44:52 10° NE visible
25 Feb 4.9 06:16:45 13° WNW 06:19:07 21° NNW 06:22:15 10° NNE visible
26 Feb 4.6 04:26:06 37° NNE 04:26:06 37° NNE 04:28:39 10° NE visible
26 Feb 4.9 06:01:04 16° WNW 06:02:54 21° NNW 06:06:01 10° NNE visible
27 Feb 5.1 04:10:22 28° NE 04:10:22 28° NE 04:12:24 10° NE visible
27 Feb 4.9 05:45:19 18° NW 05:46:41 21° NNW 05:49:47 10° NNE visible
28 Feb 5.5 03:54:36 23° NE 03:54:36 23° NE 03:56:11 10° NE visible
28 Feb 4.9 05:29:33 19° NW 05:30:28 21° NNW 05:33:33 10° NNE visible
01 Mar 5.9 03:38:47 18° NE 03:38:47 18° NE 03:39:57 10° NE visible
01 Mar 4.9 05:13:44 20° NW 05:14:14 20° NNW 05:17:20 10° NNE visible
02 Mar 6.2 03:22:57 15° NE 03:22:57 15° NE 03:23:44 10° NE visible
02 Mar 5.0 04:57:54 20° NNW 04:58:01 20° NNW 05:01:06 10° NNE visible
02 Mar 5.6 06:34:59 10° NNW 06:37:04 14° N 06:39:10 10° NNE visible
